Weather History for Alexander City, AL

Change the Weather History Date:

Thursday, February 6, 2014

  Actual Average (KAUO) Record (KAUO)
Temperature  
Mean Temperature 38 °F -  
Max Temperature 43 °F - 74 °F (1976)
Min Temperature 34 °F - 16 °F (1966)
Degree Days  
Heating Degree Days 26    
Month to date heating degree days  
Since 1 July heating degree days  
Moisture  
Dew Point 26 °F    
Average Humidity 62    
Maximum Humidity 85    
Minimum Humidity 45    
Precipitation  
Precipitation 0.00 in - 3.33 in (2002)
Month to date precipitation  
Year to date precipitation  
Sea Level Pressure  
Sea Level Pressure 30.31 in    
Wind  
Wind Speed 9 mph (North)    
Max Wind Speed 14 mph    
Max Gust Speed 20 mph    
Visibility 10 miles    
Events Snow    
T = Trace of Precipitation, MM = Missing Value Source: NWS Daily Summary

Daily Weather History Graph

Daily Weather History Graph

Search for Another Location

Airport:

Trip Planner

Search our weather history database for the weather conditions in past years. The results will help you decide how hot, cold, wet, or windy it might be!

Date:

Astronomy

Feb. 06, 2014 Rise Set
Actual Time 6:35 AM CST 5:21 PM CST
Civil Twilight 6:09 AM CST 5:46 PM CST
Nautical Twilight 5:40 AM CST 6:16 PM CST
Astronomical Twilight 5:11 AM CST 6:44 PM CST
Moon 10:53 AM CST (2/6) No Moon Set
Length of Visible Light 11h 37m
Length of Day
10h 45m
Waxing Crescent, 49% of the Moon is Illuminated
Feb 6
Waxing Crescent
Feb 6
First Quarter
Feb 14
Full
Feb 22
Last Quarter
Mar 1
New

Hourly Weather History & Observations

Time (CST) Temp. Windchill Dew Point Humidity Pressure Visibility Wind Dir Wind Speed Gust Speed Precip Events Conditions
12:15 AM 35.1 °F 27.4 °F 25.5 °F 68% 30.28 in 10.0 mi North 10.4 mph - N/A   Overcast
12:35 AM 35.1 °F 25.9 °F 25.2 °F 67% 30.28 in 10.0 mi NNW 13.8 mph 19.6 mph N/A   Overcast
12:55 AM 35.1 °F 26.9 °F 25.0 °F 67% 30.28 in 10.0 mi North 11.5 mph - N/A   Overcast
1:15 AM 35.1 °F 27.4 °F 25.0 °F 67% 30.28 in 10.0 mi North 10.4 mph 16.1 mph N/A   Overcast
1:35 AM 35.1 °F 26.9 °F 25.2 °F 67% 30.28 in 10.0 mi North 11.5 mph - N/A   Overcast
1:55 AM 35.1 °F 29.3 °F 25.3 °F 68% 30.28 in 10.0 mi North 6.9 mph - N/A   Overcast
2:15 AM 35.1 °F 27.9 °F 25.0 °F 67% 30.28 in 10.0 mi North 9.2 mph - N/A   Overcast
2:35 AM 35.1 °F 27.4 °F 25.0 °F 67% 30.28 in 10.0 mi NNW 10.4 mph - N/A   Overcast
2:55 AM 35.1 °F 26.9 °F 24.6 °F 66% 30.27 in 10.0 mi North 11.5 mph - N/A   Overcast
3:15 AM 35.1 °F 28.6 °F 24.8 °F 66% 30.28 in 10.0 mi North 8.1 mph - N/A   Overcast
3:35 AM 35.1 °F 26.4 °F 24.6 °F 66% 30.27 in 10.0 mi North 12.7 mph 18.4 mph N/A   Overcast
3:55 AM 35.1 °F 27.4 °F 24.8 °F 66% 30.26 in 10.0 mi North 10.4 mph - N/A   Overcast
4:15 AM 35.1 °F 27.4 °F 24.6 °F 66% 30.27 in 10.0 mi North 10.4 mph - N/A   Overcast
4:35 AM 35.1 °F 27.9 °F 24.8 °F 66% 30.29 in 10.0 mi North 9.2 mph - N/A   Overcast
4:55 AM 35.1 °F 28.6 °F 24.3 °F 65% 30.29 in 10.0 mi NNW 8.1 mph - N/A   Mostly Cloudy
5:15 AM 35.1 °F 29.3 °F 24.4 °F 65% 30.31 in 10.0 mi NNW 6.9 mph - N/A   Mostly Cloudy
5:35 AM 35.1 °F 29.3 °F 24.6 °F 66% 30.32 in 10.0 mi NNW 6.9 mph - N/A   Scattered Clouds
5:55 AM 35.1 °F 31.0 °F 24.1 °F 64% 30.32 in 10.0 mi North 4.6 mph - N/A   Scattered Clouds
6:15 AM 35.1 °F 28.6 °F 24.4 °F 65% 30.32 in 10.0 mi North 8.1 mph - N/A   Scattered Clouds
6:35 AM 35.1 °F 30.1 °F 24.1 °F 64% 30.31 in 10.0 mi North 5.8 mph - N/A   Scattered Clouds
6:55 AM 35.1 °F 26.9 °F 24.4 °F 65% 30.31 in 10.0 mi North 11.5 mph - N/A   Clear
7:15 AM 34.9 °F 27.7 °F 24.6 °F 66% 30.32 in 10.0 mi North 9.2 mph - N/A   Clear
7:35 AM 35.1 °F 29.3 °F 24.4 °F 65% 30.34 in 10.0 mi North 6.9 mph - N/A   Clear
7:55 AM 35.1 °F 28.6 °F 24.4 °F 65% 30.34 in 10.0 mi North 8.1 mph - N/A   Clear
8:15 AM 35.1 °F 26.4 °F 23.9 °F 64% 30.33 in 10.0 mi North 12.7 mph 18.4 mph N/A   Clear
8:35 AM 35.1 °F 26.4 °F 23.9 °F 64% 30.34 in 10.0 mi North 12.7 mph 16.1 mph N/A   Clear
8:55 AM 35.1 °F 27.9 °F 22.8 °F 61% 30.34 in 10.0 mi North 9.2 mph 16.1 mph N/A   Clear
9:15 AM 37.6 °F 30.5 °F 23.7 °F 57% 30.34 in 10.0 mi North 10.4 mph - N/A   Clear
9:35 AM 37.6 °F 33.1 °F 22.8 °F 55% 30.34 in 10.0 mi North 5.8 mph - N/A   Clear
9:55 AM 40.1 °F 35.3 °F 23.7 °F 52% 30.36 in 10.0 mi North 6.9 mph - N/A   Clear
10:15 AM 40.3 °F 35.5 °F 22.6 °F 49% 30.36 in 10.0 mi North 6.9 mph - N/A   Clear
10:35 AM 41.4 °F 36.2 °F 22.8 °F 48% 30.34 in 10.0 mi North 8.1 mph - N/A   Clear
10:55 AM 41.4 °F 36.8 °F 22.6 °F 47% 30.34 in 10.0 mi North 6.9 mph - N/A   Clear
11:15 AM 42.8 °F 37.0 °F 23.2 °F 46% 30.33 in 10.0 mi North 10.4 mph - N/A   Clear
11:35 AM 42.8 °F 38.6 °F 22.5 °F 45% 30.31 in 10.0 mi North 6.9 mph - N/A   Clear
11:55 AM 43.2 °F 36.2 °F 24.1 °F 47% 30.28 in 10.0 mi North 13.8 mph - N/A   Clear
12:15 PM 43.3 °F 38.6 °F 23.4 °F 45% 30.29 in 10.0 mi North 8.1 mph - N/A   Clear
12:35 PM 42.8 °F 39.3 °F 22.8 °F 45% 30.27 in 10.0 mi North 5.8 mph - N/A   Clear
12:55 PM 43.3 °F 39.9 °F 23.4 °F 45% 30.26 in 10.0 mi North 5.8 mph - N/A   Clear
1:15 PM 43.3 °F 38.1 °F 23.7 °F 46% 30.24 in 10.0 mi North 9.2 mph - N/A   Clear
1:35 PM 42.8 °F 37.5 °F 24.3 °F 48% 30.25 in 10.0 mi NNW 9.2 mph - N/A   Scattered Clouds
1:55 PM 42.8 °F 37.0 °F 24.6 °F 49% 30.27 in 10.0 mi NNW 10.4 mph - N/A   Scattered Clouds
2:15 PM 42.8 °F 37.0 °F 24.4 °F 48% 30.28 in 10.0 mi NW 10.4 mph 17.3 mph N/A   Clear
2:35 PM 41.4 °F 34.7 °F 23.2 °F 48% 30.28 in 10.0 mi NNW 11.5 mph - N/A   Clear
2:55 PM 41.2 °F 34.1 °F 23.7 °F 50% 30.30 in 10.0 mi NW 12.7 mph - N/A   Scattered Clouds
3:15 PM 40.1 °F 33.2 °F 23.0 °F 51% 30.32 in 10.0 mi NW 11.5 mph 16.1 mph N/A   Scattered Clouds
3:35 PM 40.1 °F 33.2 °F 22.8 °F 50% 30.31 in 10.0 mi North 11.5 mph - N/A   Clear
3:55 PM 40.1 °F 33.6 °F 23.4 °F 51% 30.34 in 10.0 mi NW 10.4 mph - N/A   Clear
4:15 PM 40.1 °F 33.6 °F 23.9 °F 52% 30.32 in 10.0 mi North 10.4 mph - N/A   Clear
4:35 PM 40.1 °F 34.7 °F 24.3 °F 53% 30.33 in 10.0 mi North 8.1 mph - N/A   Scattered Clouds
4:55 PM 40.1 °F 33.2 °F 24.1 °F 53% 30.31 in 10.0 mi North 11.5 mph - N/A   Scattered Clouds
5:15 PM 40.1 °F 33.2 °F 24.3 °F 53% 30.30 in 10.0 mi North 11.5 mph 18.4 mph N/A   Scattered Clouds
5:35 PM 37.6 °F 29.6 °F 25.7 °F 62% 30.31 in 10.0 mi North 12.7 mph - N/A Snow Light Snow
5:55 PM 37.6 °F 32.3 °F 27.7 °F 67% 30.31 in 7.0 mi North 6.9 mph 10.4 mph N/A Snow Light Snow
6:15 PM 36.9 °F 33.1 °F 30.6 °F 78% 30.32 in 4.0 mi NNE 4.6 mph - N/A Snow Light Snow
6:35 PM 37.6 °F - 31.1 °F 77% 30.33 in 10.0 mi Calm Calm - N/A   Overcast
6:55 PM 37.6 °F 35.1 °F 30.4 °F 75% 30.33 in 10.0 mi NNE 3.5 mph - N/A   Mostly Cloudy
7:15 PM 36.3 °F - 29.7 °F 77% 30.33 in 10.0 mi Calm Calm - N/A   Scattered Clouds
7:35 PM 35.4 °F - 29.1 °F 78% 30.33 in 10.0 mi Calm Calm - N/A   Mostly Cloudy
7:55 PM 36.5 °F - 30.0 °F 77% 30.34 in 10.0 mi Calm Calm - N/A   Overcast
8:15 PM 37.6 °F - 31.1 °F 77% 30.34 in 10.0 mi Calm Calm - N/A   Overcast
8:35 PM 37.6 °F 35.1 °F 30.7 °F 76% 30.34 in 10.0 mi North 3.5 mph - N/A   Overcast
8:55 PM 37.6 °F 34.0 °F 29.8 °F 74% 30.33 in 10.0 mi North 4.6 mph - N/A   Overcast
9:15 PM 37.6 °F - 29.3 °F 72% 30.32 in 10.0 mi Calm Calm - N/A   Overcast
9:35 PM 37.6 °F - 28.9 °F 71% 30.31 in 10.0 mi Calm Calm - N/A   Overcast
9:55 PM 37.6 °F - 28.2 °F 69% 30.30 in 10.0 mi Calm Calm - N/A   Overcast
10:15 PM 37.6 °F - 28.8 °F 70% 30.29 in 10.0 mi Calm Calm - N/A   Overcast
10:35 PM 37.6 °F - 28.9 °F 71% 30.29 in 10.0 mi Calm Calm - N/A   Mostly Cloudy
10:55 PM 35.1 °F - 28.2 °F 76% 30.30 in 10.0 mi Calm Calm - N/A   Scattered Clouds
11:15 PM 35.1 °F - 28.8 °F 78% 30.30 in 10.0 mi Calm Calm - N/A   Clear
11:35 PM 35.1 °F - 30.6 °F 84% 30.30 in 7.0 mi Calm Calm - N/A   Clear
11:55 PM 34.2 °F - 30.0 °F 85% 30.31 in 7.0 mi Calm Calm - N/A   Clear